[[{"header":{"parameterUnit":"m.s-1","parameterCategory":2,"la1":30.2991,"la2":30.254,"lo1":-89.0895,"lo2":-89.0444,"dy":0.0017,"dx":0.0017,"nx":28,"ny":28,"refTime":"2023-08-21T03:00:00:Z","depth":"0","parameterNumber":2,"parameterNumberName":"U-component_of_CURRENTS"},"data":[0,0,0,0,0,0,0,0,0,0,0,0,0,0,0,0,0,0,0,0,0,0,0,0,0,0,0,0,0,0,0,0,0,0,0,0,0,0,0,0,0,0,0,0,0,0,0,0,0,0,0,0,0,0,0,0,0,0,-0.1691,-0.169,0,-0.1669,-0.1668,-0.1668,-0.1663,-0.1663,-0.1663,-0.1663,-0.1653,-0.1653,-0.1653,0,0,0,0,0,0,0,0,0,0,0,0,0,-0.1679,-0.168,-0.1691,-0.169,-0.169,-0.1669,-0.1668,-0.1668,-0.1663,-0.1663,-0.1663,-0.1663,-0.1654,-0.1653,-0.1653,0,0,0,0,0,0,0,0,0,0,0,0,0,-0.1674,-0.168,-0.1691,-0.1684,-0.1684,-0.1669,-0.1668,-0.1668,-0.1663,-0.1663,-0.1663,-0.1663,-0.1654,-0.1653,-0.1653,-0.1647,0,0,-0.1651,-0.1651,0,0,0,0,0,0,0,0,-0.1674,-0.1675,-0.1686,-0.1685,-0.1684,-0.1668,-0.1661,-0.1661,-0.1663,-0.1671,-0.1663,-0.1663,-0.1659,-0.1658,-0.1654,-0.1646,-0.1646,-0.1651,-0.1651,-0.1651,-0.165,0,0,0,0,0,0,0,-0.1675,-0.1675,-0.1683,-0.1685,-0.1684,-0.1666,-0.1666,-0.1661,-0.1665,-0.1671,-0.167,-0.1667,-0.1659,-0.1655,-0.1654,-0.1646,-0.1651,-0.1651,-0.165,-0.165,-0.1631,-0.1631,0,0,0,0,0,0,-0.1679,-0.1676,-0.1683,-0.1682,-0.1679,-0.1666,-0.1666,-0.1674,-0.1665,-0.1664,-0.1667,-0.1666,-0.1656,-0.1655,-0.1654,-0.1643,-0.1651,-0.165,-0.165,-0.1631,-0.1631,-0.1631,0,0,0,0,0,0,-0.1679,-0.168,-0.1684,-0.1677,-0.1676,-0.1666,-0.1675,-0.1673,-0.1673,-0.1662,-0.1661,-0.1668,-0.1656,-0.1654,-0.1647,-0.1643,-0.165,-0.1649,-0.1632,-0.1631,-0.1631,-0.1624,0,0,0,0,0,0,-0.1679,-0.1681,-0.1687,-0.1678,-0.1677,-0.1685,-0.1674,-0.1673,-0.167,-0.167,-0.1663,-0.1662,-0.1656,-0.1648,-0.1646,-0.1642,-0.1649,-0.1632,-0.1631,-0.1631,-0.1624,-0.1623,-0.1623,0,0,0,0,0,-0.1679,-0.1688,-0.1688,-0.1689,-0.1687,-0.1685,-0.1684,-0.1676,-0.167,-0.1675,-0.1662,-0.1662,-0.1645,-0.1647,-0.1646,-0.1641,-0.1632,-0.1631,-0.1631,-0.1625,-0.1624,-0.1623,0,0,0,0,0,0,-0.1682,-0.1688,-0.1688,-0.1698,-0.1696,-0.1684,-0.1685,-0.1679,-0.1672,-0.1669,-0.1659,-0.1657,-0.1652,-0.1647,-0.165,-0.1635,-0.1639,-0.1638,-0.1635,-0.1633,-0.1633,-0.1642,-0.1648,0,0,0,0,0,-0.1687,-0.1698,-0.1697,-0.1703,-0.1706,-0.1696,-0.1693,-0.1688,-0.1679,-0.1676,-0.167,-0.1659,-0.1648,-0.1641,-0.1638,-0.1626,-0.1647,-0.1623,-0.1622,-0.1621,-0.1628,-0.1624,-0.1624,-0.1629,-0.1629,-0.1629,0,0,-0.1687,-0.1692,-0.1697,-0.1705,-0.1702,-0.171,-0.1695,-0.1693,-0.1688,-0.1676,-0.167,-0.1661,-0.1647,-0.1635,-0.1632,-0.1629,-0.1641,-0.1621,-0.162,-0.1627,-0.1624,-0.1624,-0.1623,-0.1629,-0.1629,-0.1629,0,0,-0.1693,-0.1702,-0.1714,-0.172,-0.172,-0.1717,-0.1719,-0.1712,-0.1699,-0.1691,-0.1677,-0.1661,-0.1654,-0.1634,-0.1623,-0.1614,-0.1641,-0.1618,-0.1613,-0.1609,-0.1609,-0.1608,-0.168,-0.1686,-0.161,-0.161,-0.161,0,-0.1695,-0.1704,-0.1715,-0.1729,-0.1726,-0.1724,-0.1728,-0.172,-0.1708,-0.1691,-0.1693,-0.1669,-0.1651,-0.1626,-0.1617,-0.1612,-0.1643,-0.1616,-0.1608,-0.1608,-0.1608,-0.1681,-0.1687,-0.1609,-0.1609,-0.161,-0.161,0,-0.1711,-0.1717,-0.1723,-0.1743,-0.175,-0.1746,-0.1744,-0.1747,-0.1732,-0.1713,-0.1692,-0.1669,-0.1653,-0.1641,-0.1623,-0.1608,-0.1645,-0.1613,-0.1612,-0.1607,-0.1685,-0.1692,-0.1609,-0.1609,-0.1609,-0.1609,0,0,-0.1706,-0.1727,-0.1728,-0.1727,-0.1746,-0.1748,-0.1757,-0.1743,-0.1746,-0.1724,-0.172,-0.1671,-0.1657,-0.1644,-0.1622,-0.161,-0.1637,-0.1609,-0.1609,-0.1684,-0.1693,-0.1742,-0.1755,-0.1601,-0.1601,-0.1601,-0.1765,0,-0.1703,-0.1721,-0.1732,-0.1738,-0.1742,-0.1752,-0.1767,-0.1761,-0.1751,-0.1757,-0.1712,-0.1711,-0.1657,-0.1663,-0.1631,-0.1642,-0.1648,-0.16,-0.1684,-0.1688,-0.1732,-0.176,-0.178,-0.1928,-0.1772,-0.1774,-0.1774,0,-0.171,-0.1714,-0.1719,-0.1729,-0.1734,-0.1743,-0.1761,-0.1771,-0.1779,-0.1782,-0.1762,-0.175,-0.1733,-0.1695,-0.1699,-0.1674,-0.1681,-0.1689,-0.1695,-0.1743,-0.1747,-0.1898,-0.1948,-0.1955,-0.1786,-0.1785,-0.1784,0,-0.1696,-0.17,-0.1694,-0.1699,-0.1725,-0.1724,-0.174,-0.1765,-0.1786,-0.1805,-0.1852,-0.1806,-0.1836,-0.1801,-0.1801,-0.1757,-0.1841,-0.1781,-0.1842,-0.1849,-0.1885,-0.1894,-0.1949,-0.1787,-0.1786,-0.1786,-0.1785,0,-0.1686,-0.168,-0.1681,-0.1682,-0.1681,-0.1711,-0.1729,-0.1756,-0.1816,-0.1874,-0.1857,-0.192,-0.1861,-0.1895,-0.1855,-0.1899,-0.1883,-0.1868,-0.1884,-0.1889,-0.1896,-0.1917,-0.191,-0.1792,-0.1791,-0.179,-0.1789,0,-0.1672,-0.1681,-0.1669,-0.1674,-0.1676,-0.1677,-0.1735,-0.1786,-0.1843,-0.1938,-0.1965,-0.2026,-0.2087,-0.2058,-0.2059,-0.2012,-0.2028,-0.2037,-0.209,-0.2107,-0.2136,-0.2127,-0.2182,-0.2146,-0.2134,-0.2136,-0.2138,0,-0.1662,-0.1654,-0.1652,-0.1668,-0.1662,-0.1677,-0.1735,-0.1791,-0.1867,-0.2013,-0.2087,-0.2177,-0.225,-0.2298,-0.2244,-0.2239,-0.2155,-0.2247,-0.2129,-0.2167,-0.2169,-0.2108,-0.2067,-0.2208,-0.221,-0.2211,-0.2213,0,-0.1621,-0.1622,-0.1624,-0.1654,-0.1689,-0.1734,-0.1806,-0.1871,-0.1994,-0.2092,-0.2252,-0.2321,-0.2412,-0.243,-0.2424,-0.2378,-0.2235,-0.2282,-0.2284,-0.2211,-0.2185,-0.215,-0.2123,-0.2228,-0.2227,-0.2226,-0.2225,-0.2224,-0.1584,-0.1575,-0.1594,-0.1623,-0.169,-0.1783,-0.1792,-0.1928,-0.2039,-0.2194,-0.2331,-0.2459,-0.2545,-0.2538,-0.2509,-0.2477,-0.2373,-0.2395,-0.2388,-0.2328,-0.2259,-0.2306,-0.2432,-0.2431,-0.2431,-0.2431,-0.2431,0,-0.151,-0.1533,-0.1571,-0.1607,-0.1679,-0.1717,-0.1842,-0.1851,-0.1958,-0.2191,-0.2324,-0.2566,-0.2636,-0.2665,-0.2681,-0.2604,-0.248,-0.2526,-0.2431,-0.2381,-0.2413,-0.2379,-0.2543,-0.2543,-0.2543,-0.2543,-0.2543,-0.2543,-0.1477,-0.1482,-0.151,-0.1574,-0.1614,-0.1636,-0.1678,-0.1721,-0.1829,-0.2045,-0.2254,-0.2488,-0.2548,-0.286,-0.2826,-0.2713,-0.2589,-0.2543,-0.2478,-0.2505,-0.2491,-0.2477,-0.2441,-0.2615,-0.2615,-0.24,-0.2399,-0.2398]},{"header":{"parameterUnit":"m.s-1","parameterCategory":2,"la1":30.2991,"la2":30.254,"lo1":-89.0895,"lo2":-89.0444,"dy":0.0017,"dx":0.0017,"nx":28,"ny":28,"refTime":"2023-08-21T03:00:00:Z","depth":"0","parameterNumber":3,"parameterNumberName":"V-component_of_CURRENTS"},"data":[0,0,0,0,0,0,0,0,0,0,0,0,0,0,0,0,0,0,0,0,0,0,0,0,0,0,0,0,0,0,0,0,0,0,0,0,0,0,0,0,0,0,0,0,0,0,0,0,0,0,0,0,0,0,0,0,0,0,-0.0322,-0.0321,0,-0.0227,-0.0226,-0.0225,-0.0173,-0.0173,-0.0173,-0.0174,-0.0074,-0.0071,-0.0068,0,0,0,0,0,0,0,0,0,0,0,0,0,-0.0351,-0.0351,-0.0322,-0.0321,-0.032,-0.0228,-0.0226,-0.0224,-0.0173,-0.0173,-0.0174,-0.0174,-0.0075,-0.0071,-0.0068,0,0,0,0,0,0,0,0,0,0,0,0,0,-0.0302,-0.0351,-0.0322,-0.0286,-0.0282,-0.0228,-0.0226,-0.0224,-0.0173,-0.0173,-0.0174,-0.0174,-0.0076,-0.0072,-0.0067,-0.0036,0,0,-0.0054,-0.0053,0,0,0,0,0,0,0,0,-0.0305,-0.0301,-0.0292,-0.0288,-0.0284,-0.0215,-0.0199,-0.0162,-0.0173,-0.0211,-0.0174,-0.0174,-0.0122,-0.0114,-0.0091,-0.0031,-0.0027,-0.0054,-0.0051,-0.005,-0.0048,0,0,0,0,0,0,0,-0.0309,-0.0304,-0.0281,-0.0291,-0.0286,-0.0238,-0.0232,-0.0191,-0.0164,-0.0208,-0.0204,-0.0199,-0.012,-0.0095,-0.0089,-0.0025,-0.0054,-0.005,-0.0048,-0.0046,0.0103,0.0104,0,0,0,0,0,0,-0.0333,-0.0308,-0.0284,-0.0279,-0.0299,-0.0238,-0.0231,-0.0234,-0.0164,-0.0155,-0.0199,-0.0197,-0.0103,-0.0094,-0.0085,-0.0028,-0.005,-0.0046,-0.0043,0.0101,0.0103,0.0104,0,0,0,0,0,0,-0.0334,-0.0332,-0.0288,-0.0293,-0.0285,-0.0238,-0.0241,-0.0232,-0.021,-0.0158,-0.0148,-0.0187,-0.0102,-0.0091,-0.0041,-0.0025,-0.0044,-0.004,0.01,0.0102,0.0104,0.0076,0,0,0,0,0,0,-0.0335,-0.0333,-0.0334,-0.0295,-0.0285,-0.0259,-0.0241,-0.023,-0.0208,-0.0204,-0.0145,-0.0135,-0.0102,-0.0047,-0.0037,-0.0019,-0.0037,0.0098,0.01,0.0103,0.0075,0.0077,0.0078,0,0,0,0,0,-0.0337,-0.0341,-0.0335,-0.0331,-0.0292,-0.0259,-0.0249,-0.0214,-0.0208,-0.0195,-0.015,-0.0137,-0.0023,-0.0043,-0.0031,-0.0012,0.0096,0.01,0.0103,0.0074,0.0076,0.0078,0,0,0,0,0,0,-0.0353,-0.0335,-0.0328,-0.0327,-0.0298,-0.0252,-0.0237,-0.0217,-0.0171,-0.0168,-0.0122,-0.0108,-0.0056,-0.0027,-0.0051,0.0042,0.004,0.0046,0.0014,0.0017,0.0018,0.0019,-0.0033,0,0,0,0,0,-0.036,-0.0358,-0.0332,-0.0329,-0.032,-0.028,-0.026,-0.0239,-0.0199,-0.0179,-0.0135,-0.0084,-0.0032,-0.0005,0.0043,0.009,0.0113,0.0113,0.0115,0.0116,0.0127,0.0169,0.0175,0.0115,0.0115,0.0115,0,0,-0.0364,-0.0355,-0.0352,-0.0332,-0.0307,-0.028,-0.0268,-0.0245,-0.0211,-0.0176,-0.0116,-0.0078,-0.0017,0.0039,0.0065,0.0063,0.0145,0.012,0.012,0.0131,0.0173,0.0179,0.0184,0.0117,0.0116,0.0116,0,0,-0.0371,-0.0367,-0.0367,-0.0343,-0.0315,-0.0285,-0.0283,-0.0238,-0.021,-0.0155,-0.0117,-0.0066,0.0009,0.0061,0.0095,0.0137,0.0151,0.0146,0.0155,0.0195,0.02,0.0205,0.0231,0.0239,0.0147,0.0147,0.0147,0,-0.0375,-0.0372,-0.0358,-0.0345,-0.0321,-0.029,-0.027,-0.023,-0.017,-0.0145,-0.0139,-0.0015,0.0027,0.0107,0.0122,0.0141,0.0155,0.0136,0.0195,0.02,0.0205,0.0232,0.024,0.0146,0.0146,0.0146,0.0146,0,-0.0379,-0.0366,-0.0363,-0.0334,-0.0305,-0.0285,-0.0237,-0.0202,-0.0168,-0.0129,-0.0055,0.0011,0.0081,0.0104,0.0127,0.0189,0.0184,0.0187,0.0181,0.0209,0.0236,0.0245,0.0145,0.0145,0.0145,0.0146,0,0,-0.0409,-0.0374,-0.0371,-0.0353,-0.0299,-0.0278,-0.0222,-0.0167,-0.0137,-0.007,-0.0021,0.0076,0.0094,0.0136,0.0172,0.0212,0.0254,0.0208,0.0211,0.0219,0.0328,0.0368,0.0382,0.0254,0.0256,0.0257,0.0327,0,-0.0412,-0.0395,-0.0367,-0.0327,-0.0309,-0.0256,-0.0209,-0.0154,-0.0104,-0.005,0.0024,0.0081,0.0111,0.0134,0.0184,0.0239,0.0278,0.0234,0.0315,0.0317,0.0337,0.0395,0.0443,0.0514,0.0336,0.0337,0.0338,0,-0.0424,-0.0406,-0.0383,-0.0328,-0.0317,-0.0284,-0.0214,-0.0171,-0.0089,-0.0051,0.0021,0.0067,0.0157,0.0162,0.0285,0.0248,0.0288,0.0328,0.0331,0.0389,0.0376,0.0463,0.0537,0.0713,0.0352,0.0351,0.035,0,-0.0459,-0.0414,-0.04,-0.0379,-0.0314,-0.029,-0.0252,-0.0178,-0.015,-0.006,-0.0035,0.0077,0.0128,0.0209,0.0302,0.0286,0.0421,0.0408,0.0487,0.0488,0.0561,0.0567,0.0807,0.0488,0.0488,0.0487,0.0487,0,-0.0475,-0.0457,-0.0419,-0.0407,-0.0387,-0.0328,-0.03,-0.0245,-0.0181,-0.0163,-0.0052,-0.0006,0.0138,0.023,0.0305,0.0438,0.0429,0.0511,0.0523,0.0553,0.0557,0.0737,0.0797,0.049,0.0489,0.0489,0.0488,0,-0.0511,-0.0489,-0.0469,-0.0417,-0.0407,-0.0395,-0.0351,-0.034,-0.026,-0.0231,-0.0207,-0.0063,0.0074,0.0219,0.0363,0.0446,0.0656,0.0598,0.0622,0.0637,0.0877,0.0932,0.1144,0.1184,0.0707,0.0709,0.071,0,-0.0526,-0.0522,-0.0497,-0.051,-0.0491,-0.047,-0.0472,-0.0394,-0.0387,-0.0275,-0.0274,-0.0115,-0.0004,0.0262,0.0457,0.0639,0.0728,0.0772,0.0767,0.093,0.1,0.1018,0.1035,0.0843,0.0845,0.0847,0.0849,0,-0.0549,-0.055,-0.0546,-0.058,-0.0592,-0.0598,-0.0588,-0.0591,-0.0516,-0.0467,-0.038,-0.0273,0.004,0.0327,0.0604,0.0693,0.0905,0.0816,0.0994,0.1151,0.118,0.1209,0.0741,0.0866,0.0864,0.0863,0.0862,0.0861,-0.0576,-0.0595,-0.062,-0.066,-0.0691,-0.0742,-0.0763,-0.0745,-0.0733,-0.0664,-0.05,-0.0302,0.021,0.0636,0.0775,0.1139,0.1043,0.1223,0.128,0.1284,0.1336,0.0904,0.1036,0.1036,0.1035,0.1035,0.1034,0,-0.0609,-0.0656,-0.0703,-0.0763,-0.0845,-0.0827,-0.0864,-0.0887,-0.0899,-0.0754,-0.0625,-0.0051,0.0448,0.0901,0.1468,0.1629,0.1602,0.1685,0.1746,0.1738,0.1385,0.1407,0.1617,0.1617,0.1617,0.1617,0.1616,0.1616,-0.0632,-0.07,-0.0745,-0.0907,-0.096,-0.1055,-0.109,-0.1096,-0.1012,-0.0785,-0.0469,-0.0174,0.059,0.1637,0.2161,0.2141,0.2239,0.2195,0.2228,0.2036,0.1998,0.1961,0.2001,0.2333,0.2333,0.2552,0.2555,0.2557]}],[{"header":{"parameterUnit":"m.s-1","parameterCategory":2,"la1":30.2991,"la2":30.254,"lo1":-89.0895,"lo2":-89.0444,"dy":0.0017,"dx":0.0017,"nx":28,"ny":28,"refTime":"2023-08-21T03:00:00:Z","depth":"2","parameterNumber":2,"parameterNumberName":"U-component_of_CURRENTS"},"data":[0,0,0,0,0,0,0,0,0,0,0,0,0,0,0,0,0,0,0,0,0,0,0,0,0,0,0,0,0,0,0,0,0,0,0,0,0,0,0,0,0,0,0,0,0,0,0,0,0,0,0,0,0,0,0,0,0,0,-0.1621,-0.162,0,-0.16,-0.16,-0.1599,-0.1595,-0.1595,-0.1596,-0.1596,-0.1585,-0.1585,-0.1584,0,0,0,0,0,0,0,0,0,0,0,0,0,-0.1608,-0.1609,-0.1621,-0.162,-0.162,-0.16,-0.16,-0.1599,-0.1595,-0.1595,-0.1596,-0.1596,-0.1585,-0.1585,-0.1584,0,0,0,0,0,0,0,0,0,0,0,0,0,-0.1604,-0.1609,-0.1621,-0.1615,-0.1614,-0.16,-0.16,-0.1599,-0.1595,-0.1595,-0.1596,-0.1596,-0.1585,-0.1585,-0.1584,-0.1577,0,0,-0.1582,-0.1582,0,0,0,0,0,0,0,0,-0.1604,-0.1605,-0.1616,-0.1615,-0.1615,-0.16,-0.1591,-0.1592,-0.1595,-0.1603,-0.1596,-0.1596,-0.159,-0.1589,-0.1586,-0.1577,-0.1576,-0.1582,-0.1582,-0.1582,-0.1581,0,0,0,0,0,0,0,-0.1605,-0.1605,-0.1613,-0.1616,-0.1615,-0.1597,-0.1597,-0.1591,-0.1597,-0.1602,-0.1602,-0.1599,-0.159,-0.1586,-0.1585,-0.1576,-0.1582,-0.1582,-0.1581,-0.1581,-0.1561,-0.1561,0,0,0,0,0,0,-0.1609,-0.1606,-0.1614,-0.1612,-0.1609,-0.1597,-0.1597,-0.1605,-0.1597,-0.1595,-0.1599,-0.1599,-0.1587,-0.1586,-0.1585,-0.1574,-0.1582,-0.1581,-0.1581,-0.1561,-0.1561,-0.1561,0,0,0,0,0,0,-0.1609,-0.161,-0.1614,-0.1607,-0.1606,-0.1598,-0.1606,-0.1604,-0.1605,-0.1593,-0.1592,-0.1601,-0.1587,-0.1586,-0.1578,-0.1574,-0.1581,-0.158,-0.1561,-0.1561,-0.1561,-0.1553,0,0,0,0,0,0,-0.1609,-0.161,-0.1618,-0.1608,-0.1607,-0.1616,-0.1606,-0.1604,-0.1602,-0.1602,-0.1595,-0.1594,-0.1587,-0.1579,-0.1577,-0.1573,-0.158,-0.1562,-0.1561,-0.1561,-0.1554,-0.1553,-0.1552,0,0,0,0,0,-0.1608,-0.1617,-0.1618,-0.1619,-0.1618,-0.1616,-0.1615,-0.1608,-0.1602,-0.1608,-0.1594,-0.1594,-0.1576,-0.1578,-0.1576,-0.1572,-0.1562,-0.1561,-0.1561,-0.1554,-0.1553,-0.1552,0,0,0,0,0,0,-0.1611,-0.1617,-0.1618,-0.1628,-0.1627,-0.1616,-0.1617,-0.1611,-0.1604,-0.1601,-0.159,-0.1588,-0.1583,-0.1578,-0.1581,-0.1565,-0.157,-0.1569,-0.1565,-0.1564,-0.1563,-0.1572,-0.1579,0,0,0,0,0,-0.1616,-0.1628,-0.1627,-0.1634,-0.1636,-0.1627,-0.1625,-0.162,-0.1611,-0.1609,-0.1602,-0.1591,-0.1579,-0.1572,-0.1569,-0.1556,-0.1577,-0.1553,-0.1552,-0.1551,-0.1558,-0.1556,-0.1555,-0.1559,-0.1559,-0.1559,0,0,-0.1617,-0.1622,-0.1627,-0.1635,-0.1633,-0.1642,-0.1627,-0.1626,-0.1621,-0.1608,-0.1603,-0.1593,-0.1578,-0.1566,-0.1562,-0.156,-0.1571,-0.1551,-0.155,-0.1557,-0.1555,-0.1555,-0.1555,-0.1559,-0.1559,-0.1559,0,0,-0.1623,-0.1632,-0.1645,-0.165,-0.1651,-0.1649,-0.1652,-0.1646,-0.1632,-0.1625,-0.161,-0.1594,-0.1587,-0.1564,-0.1553,-0.1544,-0.1571,-0.1548,-0.1543,-0.154,-0.154,-0.154,-0.1609,-0.1615,-0.154,-0.154,-0.154,0,-0.1625,-0.1634,-0.1646,-0.166,-0.1656,-0.1656,-0.1659,-0.1653,-0.1642,-0.1624,-0.1627,-0.1602,-0.1583,-0.1556,-0.1547,-0.1541,-0.1573,-0.1546,-0.1539,-0.1539,-0.1539,-0.161,-0.1616,-0.1539,-0.1539,-0.154,-0.154,0,-0.164,-0.1647,-0.1653,-0.1673,-0.168,-0.1677,-0.1675,-0.1681,-0.1668,-0.1646,-0.1625,-0.1602,-0.1584,-0.1572,-0.1553,-0.1538,-0.1575,-0.1544,-0.1543,-0.1538,-0.1614,-0.1621,-0.1539,-0.1539,-0.1539,-0.1539,0,0,-0.1635,-0.1657,-0.1657,-0.1657,-0.1677,-0.1678,-0.1689,-0.1676,-0.1678,-0.1658,-0.1652,-0.1603,-0.1587,-0.1574,-0.1551,-0.154,-0.1567,-0.1541,-0.1541,-0.1613,-0.1624,-0.1671,-0.1684,-0.1533,-0.1533,-0.1533,-0.1693,0,-0.1632,-0.165,-0.166,-0.1665,-0.167,-0.1682,-0.1696,-0.1691,-0.1683,-0.1689,-0.1643,-0.1639,-0.1586,-0.1592,-0.1561,-0.1572,-0.1579,-0.1531,-0.1615,-0.1619,-0.1661,-0.1689,-0.1501,-0.1627,-0.17,-0.1701,-0.1702,0,-0.1639,-0.1642,-0.1648,-0.1654,-0.1658,-0.1667,-0.1687,-0.1696,-0.1706,-0.1709,-0.169,-0.1677,-0.1659,-0.1624,-0.1627,-0.1604,-0.1611,-0.162,-0.1625,-0.1673,-0.1676,-0.1634,-0.1638,-0.1714,-0.1713,-0.1712,-0.1711,0,-0.1625,-0.1628,-0.1622,-0.1626,-0.165,-0.165,-0.1665,-0.1689,-0.1709,-0.1732,-0.1779,-0.1731,-0.1762,-0.1728,-0.1729,-0.1686,-0.177,-0.171,-0.177,-0.1777,-0.1636,-0.1629,-0.1718,-0.1717,-0.1717,-0.1717,-0.1716,0,-0.1615,-0.1609,-0.1611,-0.1612,-0.1607,-0.1634,-0.1651,-0.1679,-0.1738,-0.1793,-0.178,-0.1843,-0.1788,-0.1822,-0.1782,-0.1825,-0.1811,-0.1795,-0.1811,-0.1635,-0.1627,-0.1699,-0.1694,-0.1723,-0.1721,-0.172,-0.1719,0,-0.1603,-0.1612,-0.16,-0.1603,-0.1604,-0.1603,-0.1656,-0.1707,-0.1764,-0.1858,-0.1886,-0.1948,-0.2009,-0.1983,-0.1985,-0.1938,-0.1947,-0.1963,-0.1806,-0.1799,-0.195,-0.1943,-0.2049,-0.2052,-0.2054,-0.2056,-0.2058,0,-0.1593,-0.1586,-0.1584,-0.1598,-0.1592,-0.1605,-0.166,-0.1714,-0.1789,-0.1932,-0.2004,-0.2095,-0.216,-0.2208,-0.2118,-0.2101,-0.2076,-0.195,-0.1805,-0.1975,-0.1979,-0.1969,-0.1959,-0.1637,-0.1635,-0.1634,-0.1632,0,-0.1551,-0.1554,-0.1556,-0.1586,-0.162,-0.1661,-0.173,-0.1793,-0.1911,-0.2002,-0.2156,-0.2216,-0.2272,-0.2165,-0.2145,-0.2077,-0.1926,-0.1924,-0.2117,-0.159,-0.16,-0.1601,-0.1601,-0.1618,-0.162,-0.1621,-0.1622,-0.1622,-0.1515,-0.1506,-0.1526,-0.1554,-0.162,-0.1707,-0.1715,-0.182,-0.1916,-0.1993,-0.2161,-0.2161,-0.2146,-0.2004,-0.1944,-0.1848,-0.1951,-0.1812,-0.181,-0.1811,-0.1742,-0.1755,-0.1795,-0.1797,-0.18,-0.1801,-0.1803,0,-0.1425,-0.1465,-0.1502,-0.1536,-0.1586,-0.1644,-0.1762,-0.1729,-0.179,-0.1879,-0.1946,-0.1794,-0.1777,-0.1746,-0.1595,-0.1605,-0.1494,-0.1528,-0.1354,-0.1371,-0.1386,-0.1287,-0.1224,-0.1222,-0.1221,-0.122,0,0,-0.1388,-0.1384,-0.1411,-0.146,-0.1516,-0.1525,-0.1564,-0.1532,-0.1528,-0.1471,-0.1451,-0.1603,-0.1681,-0.143,-0.1398,-0.129,-0.1294,-0.1221,-0.1682,-0.149,-0.1501,-0.1552,-0.1422,0,0,0,0,0]},{"header":{"parameterUnit":"m.s-1","parameterCategory":2,"la1":30.2991,"la2":30.254,"lo1":-89.0895,"lo2":-89.0444,"dy":0.0017,"dx":0.0017,"nx":28,"ny":28,"refTime":"2023-08-21T03:00:00:Z","depth":"2","parameterNumber":3,"parameterNumberName":"V-component_of_CURRENTS"},"data":[0,0,0,0,0,0,0,0,0,0,0,0,0,0,0,0,0,0,0,0,0,0,0,0,0,0,0,0,0,0,0,0,0,0,0,0,0,0,0,0,0,0,0,0,0,0,0,0,0,0,0,0,0,0,0,0,0,0,-0.0335,-0.0334,0,-0.0242,-0.0241,-0.0239,-0.0187,-0.0187,-0.0188,-0.0188,-0.0089,-0.0086,-0.0083,0,0,0,0,0,0,0,0,0,0,0,0,0,-0.0362,-0.0363,-0.0335,-0.0334,-0.0333,-0.0242,-0.024,-0.0239,-0.0187,-0.0187,-0.0188,-0.0188,-0.009,-0.0086,-0.0083,0,0,0,0,0,0,0,0,0,0,0,0,0,-0.0315,-0.0363,-0.0335,-0.0299,-0.0295,-0.0242,-0.024,-0.0238,-0.0187,-0.0187,-0.0188,-0.0188,-0.0091,-0.0087,-0.0082,-0.0052,0,0,-0.007,-0.0068,0,0,0,0,0,0,0,0,-0.0318,-0.0314,-0.0305,-0.0301,-0.0297,-0.0229,-0.0214,-0.0177,-0.0187,-0.0225,-0.0188,-0.0188,-0.0137,-0.0129,-0.0106,-0.0048,-0.0043,-0.0069,-0.0067,-0.0065,-0.0064,0,0,0,0,0,0,0,-0.0322,-0.0317,-0.0295,-0.0304,-0.0299,-0.0251,-0.0246,-0.0206,-0.0178,-0.0221,-0.0218,-0.0213,-0.0134,-0.0111,-0.0104,-0.0042,-0.0069,-0.0066,-0.0063,-0.0062,0.0083,0.0085,0,0,0,0,0,0,-0.0345,-0.0321,-0.0298,-0.0292,-0.0312,-0.0251,-0.0245,-0.0248,-0.0178,-0.0169,-0.0213,-0.0211,-0.0118,-0.0109,-0.01,-0.0044,-0.0065,-0.0061,-0.0059,0.0082,0.0084,0.0085,0,0,0,0,0,0,-0.0346,-0.0344,-0.0302,-0.0306,-0.0298,-0.0252,-0.0255,-0.0246,-0.0224,-0.0173,-0.0163,-0.0201,-0.0117,-0.0106,-0.0057,-0.0041,-0.0059,-0.0055,0.008,0.0083,0.0084,0.0057,0,0,0,0,0,0,-0.0347,-0.0345,-0.0346,-0.0308,-0.0299,-0.0273,-0.0255,-0.0244,-0.0222,-0.0219,-0.0159,-0.015,-0.0117,-0.0063,-0.0053,-0.0036,-0.0052,0.0079,0.0081,0.0084,0.0056,0.0058,0.0059,0,0,0,0,0,-0.0349,-0.0354,-0.0347,-0.0344,-0.0305,-0.0273,-0.0263,-0.0228,-0.0222,-0.0209,-0.0165,-0.0152,-0.004,-0.0059,-0.0047,-0.0028,0.0077,0.0081,0.0084,0.0055,0.0057,0.0059,0,0,0,0,0,0,-0.0365,-0.0348,-0.034,-0.034,-0.0311,-0.0266,-0.0252,-0.0232,-0.0186,-0.0183,-0.0137,-0.0124,-0.0073,-0.0044,-0.0067,0.0024,0.0022,0.0028,-0.0003,-0.0001,0.0001,0.0002,-0.0049,0,0,0,0,0,-0.0372,-0.0371,-0.0345,-0.0342,-0.0333,-0.0294,-0.0275,-0.0254,-0.0214,-0.0194,-0.0151,-0.01,-0.0049,-0.0023,0.0025,0.007,0.0094,0.0093,0.0095,0.0095,0.0107,0.015,0.0156,0.0095,0.0095,0.0095,0,0,-0.0376,-0.0368,-0.0365,-0.0345,-0.0321,-0.0294,-0.0282,-0.0259,-0.0226,-0.0191,-0.0132,-0.0095,-0.0035,0.002,0.0046,0.0044,0.0125,0.0099,0.0099,0.0111,0.0154,0.0159,0.0164,0.0097,0.0097,0.0096,0,0,-0.0384,-0.038,-0.038,-0.0356,-0.0329,-0.0299,-0.0297,-0.0253,-0.0225,-0.0171,-0.0134,-0.0084,-0.001,0.0041,0.0075,0.0116,0.013,0.0124,0.0134,0.0175,0.018,0.0184,0.0211,0.0218,0.0125,0.0125,0.0125,0,-0.0388,-0.0385,-0.0371,-0.0359,-0.0336,-0.0304,-0.0285,-0.0246,-0.0187,-0.0162,-0.0155,-0.0033,0.0008,0.0087,0.0101,0.0119,0.0134,0.0115,0.0174,0.0179,0.0185,0.0211,0.0219,0.0124,0.0125,0.0125,0.0125,0,-0.0393,-0.038,-0.0378,-0.0349,-0.0321,-0.0301,-0.0253,-0.0218,-0.0184,-0.0146,-0.0072,-0.0008,0.0061,0.0083,0.0106,0.0168,0.0162,0.0166,0.0161,0.0189,0.0215,0.0224,0.0123,0.0123,0.0124,0.0124,0,0,-0.0423,-0.0389,-0.0385,-0.0368,-0.0315,-0.0294,-0.0238,-0.0183,-0.0154,-0.0087,-0.0038,0.0056,0.0074,0.0116,0.015,0.0191,0.0234,0.0188,0.019,0.0199,0.0309,0.0346,0.036,0.0234,0.0236,0.0237,0.0308,0,-0.0427,-0.041,-0.0383,-0.0343,-0.0325,-0.0273,-0.0226,-0.0171,-0.0121,-0.0067,0.0006,0.0062,0.0092,0.0114,0.0164,0.0219,0.0258,0.0214,0.0295,0.0298,0.0316,0.0373,0.0294,0.0354,0.0317,0.0318,0.0319,0,-0.0439,-0.0421,-0.0399,-0.0344,-0.0333,-0.0301,-0.0231,-0.0188,-0.0106,-0.0068,0.0004,0.0049,0.0138,0.0143,0.0266,0.0229,0.0269,0.0309,0.0313,0.0368,0.0354,0.0326,0.0372,0.0334,0.0333,0.0332,0.0331,0,-0.0473,-0.043,-0.0415,-0.0395,-0.033,-0.0306,-0.0269,-0.0194,-0.0168,-0.0077,-0.0052,0.006,0.011,0.0192,0.0284,0.0267,0.0403,0.039,0.0466,0.0468,0.0432,0.0429,0.0471,0.0471,0.047,0.047,0.047,0,-0.0489,-0.0472,-0.0434,-0.0422,-0.0402,-0.0344,-0.0316,-0.0261,-0.0197,-0.018,-0.0069,-0.0024,0.0121,0.0213,0.0288,0.0419,0.0411,0.049,0.0502,0.0421,0.0416,0.0424,0.0418,0.0473,0.0472,0.0472,0.0471,0,-0.0525,-0.0503,-0.0483,-0.0432,-0.0422,-0.0409,-0.0366,-0.0356,-0.0276,-0.0247,-0.0224,-0.008,0.0055,0.02,0.0344,0.0426,0.054,0.0577,0.0473,0.0474,0.057,0.0562,0.0679,0.0681,0.0683,0.0685,0.0686,0,-0.054,-0.0536,-0.051,-0.0523,-0.0504,-0.0483,-0.0485,-0.0409,-0.0402,-0.0292,-0.0292,-0.0134,-0.0028,0.0237,0.0404,0.0578,0.0582,0.0615,0.0592,0.0599,0.0598,0.0587,0.0576,0.0519,0.0519,0.0519,0.0519,0,-0.0563,-0.0563,-0.0559,-0.0592,-0.0604,-0.0611,-0.0601,-0.0605,-0.0532,-0.0486,-0.0403,-0.03,-0.0016,0.019,0.0454,0.0532,0.0591,0.0621,0.0662,0.0489,0.0457,0.0453,0.0446,0.0518,0.0518,0.0518,0.0518,0.0518,-0.0588,-0.0607,-0.0632,-0.0671,-0.0703,-0.0755,-0.0776,-0.0763,-0.0755,-0.0704,-0.0545,-0.039,-0.0109,0.0236,0.0437,0.0615,0.0617,0.064,0.0636,0.0633,0.0613,0.0588,0.0668,0.0668,0.0669,0.067,0.0671,0,-0.062,-0.0667,-0.0713,-0.0773,-0.0855,-0.0838,-0.0876,-0.0898,-0.0919,-0.0828,-0.0724,-0.0445,-0.0153,0.0142,0.0423,0.0622,0.058,0.0645,0.0551,0.055,0.055,0.0523,0.0555,0.0555,0.0556,0.0556,0,0,-0.0643,-0.071,-0.0754,-0.0915,-0.0968,-0.1062,-0.1099,-0.1104,-0.1055,-0.0988,-0.0861,-0.0627,-0.021,-0.0026,0.0237,0.0399,0.0404,0.0394,0.0456,0.0308,0.0305,0.0512,0.0466,0,0,0,0,0]}],[{"header":{"parameterUnit":"m.s-1","parameterCategory":2,"la1":30.2991,"la2":30.254,"lo1":-89.0895,"lo2":-89.0444,"dy":0.0017,"dx":0.0017,"nx":28,"ny":28,"refTime":"2023-08-21T03:00:00:Z","depth":"4","parameterNumber":2,"parameterNumberName":"U-component_of_CURRENTS"},"data":[0,0,0,0,0,0,0,0,0,0,0,0,0,0,0,0,0,0,0,0,0,0,0,0,0,0,0,0,0,0,0,0,0,0,0,0,0,0,0,0,0,0,0,0,0,0,0,0,0,0,0,0,0,0,0,0,0,0,-0.0592,-0.0593,0,-0.0669,-0.0669,-0.067,-0.0748,-0.0749,-0.075,-0.0751,-0.0804,-0.0804,-0.0805,0,0,0,0,0,0,0,0,0,0,0,0,0,-0.0471,-0.0473,-0.0592,-0.0593,-0.0594,-0.0668,-0.0669,-0.067,-0.0747,-0.0749,-0.075,-0.0751,-0.0804,-0.0804,-0.0805,0,0,0,0,0,0,0,0,0,0,0,0,0,-0.0532,-0.0474,-0.0592,-0.0642,-0.0648,-0.0668,-0.0669,-0.0671,-0.0747,-0.0749,-0.075,-0.0752,-0.0804,-0.0804,-0.0805,-0.0775,0,0,-0.0807,-0.0807,0,0,0,0,0,0,0,0,-0.0529,-0.0537,-0.0634,-0.0639,-0.0645,-0.0701,-0.0646,-0.0705,-0.0747,-0.0708,-0.0751,-0.0753,-0.0767,-0.0771,-0.078,-0.0777,-0.0779,-0.0807,-0.0807,-0.0807,-0.0807,0,0,0,0,0,0,0,-0.0524,-0.0533,-0.0622,-0.0635,-0.0642,-0.0647,-0.0657,-0.0658,-0.0726,-0.0712,-0.0718,-0.0727,-0.077,-0.0779,-0.0782,-0.078,-0.0807,-0.0807,-0.0808,-0.0808,-0.0774,-0.0773,0,0,0,0,0,0,-0.0517,-0.053,-0.0619,-0.0624,-0.0591,-0.0648,-0.066,-0.0681,-0.0727,-0.0736,-0.0726,-0.0731,-0.0778,-0.0781,-0.0784,-0.0787,-0.0807,-0.0808,-0.0808,-0.0775,-0.0774,-0.0772,0,0,0,0,0,0,-0.0515,-0.0525,-0.0616,-0.0578,-0.0591,-0.0648,-0.0671,-0.0681,-0.0721,-0.0738,-0.0747,-0.0758,-0.0779,-0.0783,-0.0832,-0.0788,-0.0808,-0.0809,-0.0776,-0.0775,-0.0773,-0.0769,0,0,0,0,0,0,-0.0511,-0.0524,-0.0548,-0.0578,-0.0593,-0.0655,-0.067,-0.0682,-0.0723,-0.0731,-0.0767,-0.0773,-0.0781,-0.0831,-0.0833,-0.0789,-0.0809,-0.0778,-0.0776,-0.0773,-0.0771,-0.0767,-0.0765,0,0,0,0,0,-0.0507,-0.0505,-0.0549,-0.0561,-0.0621,-0.0656,-0.0665,-0.0709,-0.0723,-0.0749,-0.0786,-0.0773,-0.0815,-0.0833,-0.0834,-0.079,-0.0779,-0.0776,-0.0774,-0.0772,-0.0768,-0.0765,0,0,0,0,0,0,-0.0469,-0.0514,-0.0563,-0.0581,-0.0639,-0.0671,-0.0682,-0.0718,-0.0765,-0.0779,-0.0793,-0.0802,-0.0808,-0.0809,-0.0828,-0.0768,-0.0779,-0.0776,-0.0777,-0.0773,-0.077,-0.0784,-0.0809,0,0,0,0,0,-0.0474,-0.0485,-0.0551,-0.0572,-0.0595,-0.0648,-0.0671,-0.0715,-0.0752,-0.0776,-0.0808,-0.0813,-0.0788,-0.0799,-0.0793,-0.0789,-0.081,-0.0747,-0.0744,-0.0742,-0.0751,-0.0694,-0.0687,-0.0763,-0.0763,-0.0763,0,0,-0.0494,-0.0492,-0.0524,-0.0566,-0.0602,-0.0617,-0.0666,-0.071,-0.0723,-0.077,-0.0803,-0.0814,-0.0785,-0.0776,-0.0774,-0.0781,-0.0753,-0.0738,-0.0737,-0.0748,-0.0691,-0.0684,-0.0677,-0.0761,-0.0762,-0.0762,0,0,-0.0494,-0.0512,-0.0538,-0.0558,-0.061,-0.0613,-0.0632,-0.0701,-0.0737,-0.0777,-0.0786,-0.0773,-0.079,-0.0743,-0.0713,-0.068,-0.0734,-0.0695,-0.0697,-0.0641,-0.0635,-0.0629,-0.0747,-0.0751,-0.0696,-0.0696,-0.0696,0,-0.0513,-0.0534,-0.0555,-0.0557,-0.0543,-0.0604,-0.0611,-0.0645,-0.0731,-0.0778,-0.0785,-0.0775,-0.0734,-0.068,-0.0675,-0.0662,-0.0743,-0.0717,-0.0639,-0.0632,-0.0627,-0.0747,-0.0752,-0.0695,-0.0695,-0.0695,-0.0695,0,-0.0536,-0.0552,-0.0544,-0.0547,-0.0534,-0.0548,-0.0573,-0.0611,-0.0636,-0.0714,-0.0733,-0.0691,-0.0698,-0.0646,-0.0654,-0.0598,-0.0714,-0.064,-0.0653,-0.0619,-0.075,-0.0755,-0.0694,-0.0695,-0.0695,-0.0695,0,0,-0.0559,-0.057,-0.0568,-0.0588,-0.0521,-0.0541,-0.0494,-0.0538,-0.0601,-0.0642,-0.067,-0.0597,-0.0675,-0.0643,-0.063,-0.0571,-0.0593,-0.0629,-0.0626,-0.0761,-0.0659,-0.065,-0.0657,-0.0548,-0.0546,-0.0545,-0.0806,0,-0.0575,-0.0581,-0.0543,-0.0543,-0.0542,-0.0507,-0.0479,-0.0527,-0.0574,-0.0641,-0.06,-0.065,-0.0647,-0.0667,-0.0604,-0.0621,-0.0597,-0.0541,-0.066,-0.0667,-0.0667,-0.0653,-0.0539,-0.081,-0.0811,-0.0812,-0.0813,0,-0.0587,-0.0578,-0.0573,-0.0565,-0.0567,-0.0561,-0.0532,-0.0546,-0.0613,-0.0645,-0.0678,-0.075,-0.0736,-0.0652,-0.0692,-0.0707,-0.0689,-0.066,-0.0667,-0.0653,-0.066,-0.0823,-0.0823,-0.0822,-0.0821,-0.082,-0.082,0,-0.0559,-0.059,-0.0576,-0.0566,-0.056,-0.0559,-0.0555,-0.0596,-0.0643,-0.0695,-0.0764,-0.0795,-0.0787,-0.0785,-0.0832,-0.0797,-0.0855,-0.0765,-0.074,-0.0749,-0.0687,-0.0689,-0.0684,-0.0684,-0.0684,-0.0683,-0.0682,0,-0.048,-0.0488,-0.0615,-0.0603,-0.0638,-0.0624,-0.0671,-0.067,-0.0707,-0.0789,-0.0839,-0.0863,-0.0809,-0.0887,-0.0894,-0.0921,-0.0925,-0.0766,-0.0774,-0.0698,-0.0696,-0.07,-0.0698,-0.0693,-0.0691,-0.0689,-0.0687,0,-0.0361,-0.042,-0.0487,-0.0588,-0.0615,-0.0652,-0.0704,-0.0778,-0.0827,-0.0884,-0.0913,-0.0947,-0.103,-0.1072,-0.1026,-0.099,-0.0999,-0.0962,-0.1046,-0.1052,-0.0942,-0.0937,-0.1002,-0.1002,-0.1003,-0.1004,-0.1004,0,-0.0315,-0.034,-0.0511,-0.0556,-0.059,-0.0663,-0.07,-0.0763,-0.0823,-0.095,-0.0968,-0.1072,-0.1092,-0.1136,-0.1087,-0.1158,-0.105,-0.1127,-0.0859,-0.0953,-0.0956,-0.0949,-0.0944,-0.1006,-0.1006,-0.1006,-0.1006,0,-0.0256,-0.0341,-0.033,-0.0485,-0.0568,-0.064,-0.0721,-0.076,-0.0847,-0.0958,-0.1017,-0.107,-0.1097,-0.1073,-0.1125,-0.1132,-0.1138,-0.1133,-0.1126,-0.0875,-0.0959,-0.0959,-0.0953,-0.1009,-0.1009,-0.1008,-0.1008,0,-0.0216,-0.0223,-0.0309,-0.0377,-0.0486,-0.0585,-0.0632,-0.0722,-0.0785,-0.0952,-0.0953,-0.1046,-0.1065,-0.1062,-0.1139,-0.1152,-0.1058,-0.1,-0.0998,-0.0996,-0.0852,-0.095,-0.1016,0,0,0,0,0,-0.0215,-0.0171,-0.0247,-0.0307,-0.0412,-0.0504,-0.0631,-0.069,-0.0822,-0.0854,-0.0903,-0.0951,-0.0993,-0.1017,-0.101,-0.1081,-0.1046,-0.107,-0.0972,-0.1024,-0.1021,-0.0841,0,0,0,0,0,0,-0.0182,-0.0184,-0.0198,-0.0256,-0.0294,-0.042,-0.0498,-0.0581,-0.0604,-0.0742,-0.0759,-0.0892,-0.0924,-0.0967,-0.0979,-0.0996,-0.092,-0.1135,-0.1134,-0.1026,-0.1023,-0.102,-0.0835,0,0,0,0,0]},{"header":{"parameterUnit":"m.s-1","parameterCategory":2,"la1":30.2991,"la2":30.254,"lo1":-89.0895,"lo2":-89.0444,"dy":0.0017,"dx":0.0017,"nx":28,"ny":28,"refTime":"2023-08-21T03:00:00:Z","depth":"4","parameterNumber":3,"parameterNumberName":"V-component_of_CURRENTS"},"data":[0,0,0,0,0,0,0,0,0,0,0,0,0,0,0,0,0,0,0,0,0,0,0,0,0,0,0,0,0,0,0,0,0,0,0,0,0,0,0,0,0,0,0,0,0,0,0,0,0,0,0,0,0,0,0,0,0,0,-0.0297,-0.0297,0,-0.0262,-0.0262,-0.0261,-0.0218,-0.0217,-0.0217,-0.0216,-0.0149,-0.0148,-0.0147,0,0,0,0,0,0,0,0,0,0,0,0,0,-0.0287,-0.0288,-0.0297,-0.0297,-0.0296,-0.0262,-0.0262,-0.0261,-0.0218,-0.0217,-0.0217,-0.0216,-0.0149,-0.0148,-0.0147,0,0,0,0,0,0,0,0,0,0,0,0,0,-0.0276,-0.0288,-0.0297,-0.0271,-0.0268,-0.0262,-0.0262,-0.0261,-0.0218,-0.0217,-0.0216,-0.0216,-0.015,-0.0148,-0.0146,-0.0155,0,0,-0.0141,-0.014,0,0,0,0,0,0,0,0,-0.0276,-0.0276,-0.0275,-0.0273,-0.027,-0.0244,-0.0233,-0.0224,-0.0219,-0.0237,-0.0216,-0.0215,-0.0179,-0.0174,-0.017,-0.0152,-0.0149,-0.0141,-0.014,-0.0139,-0.0139,0,0,0,0,0,0,0,-0.0277,-0.0277,-0.0283,-0.0275,-0.0272,-0.0247,-0.0245,-0.0231,-0.0213,-0.0235,-0.0232,-0.0229,-0.0177,-0.0172,-0.0168,-0.0148,-0.0141,-0.0139,-0.0138,-0.0138,-0.0108,-0.0108,0,0,0,0,0,0,-0.0285,-0.0278,-0.0284,-0.0282,-0.0271,-0.0248,-0.0246,-0.0253,-0.0214,-0.0207,-0.023,-0.0227,-0.0175,-0.017,-0.0166,-0.0148,-0.0139,-0.0137,-0.0136,-0.0108,-0.0108,-0.0108,0,0,0,0,0,0,-0.0286,-0.0287,-0.0286,-0.0279,-0.0277,-0.025,-0.0258,-0.0253,-0.0245,-0.021,-0.0202,-0.0227,-0.0174,-0.0168,-0.0144,-0.0146,-0.0137,-0.0135,-0.0107,-0.0108,-0.0108,-0.0129,0,0,0,0,0,0,-0.0286,-0.0287,-0.0297,-0.028,-0.0277,-0.029,-0.0259,-0.0253,-0.0245,-0.0241,-0.0205,-0.0198,-0.0173,-0.0147,-0.0142,-0.0143,-0.0134,-0.0107,-0.0108,-0.0108,-0.0128,-0.013,-0.0132,0,0,0,0,0,-0.0286,-0.0299,-0.0298,-0.0298,-0.0292,-0.0291,-0.0288,-0.0265,-0.0246,-0.0252,-0.0215,-0.0199,-0.0147,-0.0146,-0.014,-0.0141,-0.0107,-0.0107,-0.0108,-0.0127,-0.013,-0.0132,0,0,0,0,0,0,-0.0297,-0.0296,-0.0294,-0.0306,-0.0305,-0.0284,-0.0285,-0.027,-0.0247,-0.024,-0.02,-0.0191,-0.0173,-0.0157,-0.0156,-0.0135,-0.0126,-0.0126,-0.0143,-0.0145,-0.0147,-0.0122,-0.0132,0,0,0,0,0,-0.0307,-0.0322,-0.0314,-0.0328,-0.0327,-0.0309,-0.0305,-0.0293,-0.027,-0.026,-0.0226,-0.0196,-0.0174,-0.0158,-0.014,-0.0128,-0.0098,-0.0126,-0.0128,-0.013,-0.0107,-0.0088,-0.0086,-0.011,-0.011,-0.011,0,0,-0.0324,-0.0319,-0.0333,-0.0333,-0.0327,-0.0332,-0.0304,-0.0306,-0.0297,-0.0257,-0.0228,-0.0204,-0.0173,-0.0155,-0.0146,-0.0139,-0.0106,-0.0131,-0.0132,-0.0107,-0.0089,-0.0086,-0.0084,-0.0111,-0.0111,-0.0111,0,0,-0.035,-0.0353,-0.037,-0.0375,-0.037,-0.0354,-0.0357,-0.0337,-0.0313,-0.0298,-0.0257,-0.0233,-0.0203,-0.0171,-0.0155,-0.016,-0.0121,-0.0156,-0.014,-0.0123,-0.0121,-0.0118,-0.0068,-0.0061,-0.0154,-0.0154,-0.0154,0,-0.0366,-0.0377,-0.0376,-0.0388,-0.0388,-0.0366,-0.0377,-0.0357,-0.0327,-0.0292,-0.0296,-0.0219,-0.0212,-0.0158,-0.0159,-0.0164,-0.0128,-0.0134,-0.0125,-0.0121,-0.0118,-0.0068,-0.0059,-0.0155,-0.0155,-0.0154,-0.0154,0,-0.0402,-0.041,-0.0418,-0.0425,-0.0432,-0.0437,-0.0416,-0.0398,-0.0368,-0.033,-0.0273,-0.0247,-0.0193,-0.0198,-0.018,-0.0141,-0.0113,-0.0134,-0.0117,-0.0117,-0.0064,-0.0055,-0.0156,-0.0156,-0.0155,-0.0155,0,0,-0.0424,-0.0438,-0.044,-0.0438,-0.0447,-0.0447,-0.0438,-0.0396,-0.0357,-0.0323,-0.027,-0.0231,-0.0187,-0.0164,-0.0135,-0.0117,-0.0083,-0.0108,-0.0106,-0.0053,-0.0005,-0.003,-0.0022,-0.0096,-0.0094,-0.0094,0.0027,0,-0.0439,-0.0461,-0.0466,-0.0477,-0.048,-0.0466,-0.0452,-0.0419,-0.0374,-0.0319,-0.026,-0.0207,-0.0181,-0.0154,-0.0128,-0.0083,-0.0059,-0.011,-0.0015,-0.0011,-0.0031,-0.0014,-0.009,0.0034,0.0036,0.0038,0.0039,0,-0.0467,-0.0465,-0.0491,-0.0474,-0.0474,-0.0479,-0.0436,-0.0415,-0.034,-0.0312,-0.0236,-0.0179,-0.0099,-0.0124,-0.0008,-0.0031,-0.0015,0.0004,0.0008,0.0004,-0.0021,0.0032,0.0056,0.0055,0.0053,0.0052,0.0051,0,-0.047,-0.0475,-0.0486,-0.0494,-0.0485,-0.0476,-0.0452,-0.0401,-0.0378,-0.0288,-0.0277,-0.0145,-0.0121,-0.0037,0.0034,0.0018,0.0132,0.0102,0.0102,0.0102,0.0099,0.0095,0.0143,0.0143,0.0142,0.0142,0.0142,0,-0.0467,-0.0463,-0.0484,-0.0487,-0.0476,-0.0472,-0.0447,-0.0406,-0.0372,-0.0354,-0.0255,-0.023,-0.0109,-0.0024,0.0055,0.0136,0.0157,0.0129,0.013,0.0088,0.0081,0.0107,0.0101,0.0146,0.0145,0.0145,0.0144,0,-0.0459,-0.0471,-0.049,-0.0493,-0.0483,-0.0479,-0.0471,-0.0462,-0.0414,-0.0402,-0.0379,-0.0291,-0.0183,-0.0046,0.0066,0.0125,0.0223,0.0224,0.0215,0.021,0.0184,0.0176,0.0265,0.0265,0.0265,0.0265,0.0265,0,-0.0459,-0.0472,-0.0517,-0.0528,-0.0522,-0.0516,-0.0526,-0.0491,-0.0497,-0.0443,-0.045,-0.035,-0.0283,-0.0091,0.0032,0.0222,0.02,0.0283,0.0204,0.0204,0.0197,0.0188,0.018,0.0266,0.0266,0.0266,0.0266,0,-0.0457,-0.0497,-0.0493,-0.0552,-0.0572,-0.0598,-0.0597,-0.0607,-0.0583,-0.0555,-0.0503,-0.0388,-0.0298,-0.0131,0.0007,0.0129,0.0273,0.0283,0.0282,0.0209,0.0205,0.0196,0.0188,0.0266,0.0266,0.0266,0.0266,0,-0.045,-0.0474,-0.0524,-0.0541,-0.0602,-0.0667,-0.0653,-0.0658,-0.0652,-0.0592,-0.0581,-0.0444,-0.0366,-0.0183,-0.0039,0.0084,0.0082,0.0123,0.013,0.0131,0.0043,0.0016,0.0036,0,0,0,0,0,-0.045,-0.0467,-0.0516,-0.0553,-0.0634,-0.068,-0.071,-0.0701,-0.0684,-0.0664,-0.0617,-0.0521,-0.0329,-0.0234,-0.0124,-0.0064,0.01,0.007,0.015,0.0267,0.0267,0.0181,0,0,0,0,0,0,-0.0439,-0.0477,-0.0512,-0.059,-0.0629,-0.0722,-0.0755,-0.0733,-0.0707,-0.0667,-0.0567,-0.0497,-0.0313,-0.0401,-0.0125,-0.0086,-0.002,0.0166,0.0168,0.0267,0.0267,0.0267,0.0179,0,0,0,0,0]}]]